This is the latest recevied weather packets stored in our database for station/object HS5HBQ-1. If no packets are shown the sender has not sent any weather packets the latest 1 day(s).
| Time | Temp. | Humidity | Pressure | Rain* | Wind** | Luminosity | Snow |
|---|---|---|---|---|---|---|---|
| 1778068503 | 35° C | 44% | 970 hPa | - | - | 0 W/m² | - |
| 1778067879 | 35° C | 45% | 970 hPa | - | - | 0 W/m² | - |
| 1778064133 | 34.44° C | 46% | 970 hPa | - | - | 0 W/m² | - |
| 1778061636 | 33.89° C | 46% | 969 hPa | - | - | 0 W/m² | - |
| 1778061012 | 34.44° C | 45% | 969 hPa | - | - | 0 W/m² | - |
| 1778060388 | 34.44° C | 46% | 970 hPa | - | - | 0 W/m² | - |
| 1778059764 | 33.89° C | 45% | 970 hPa | - | - | 0 W/m² | - |
| 1778058515 | 35° C | 43% | 970 hPa | - | - | 0 W/m² | - |
| 1778057266 | 34.44° C | 47% | 970 hPa | - | - | 0 W/m² | - |
| 1778056642 | 34.44° C | 48% | 970 hPa | - | - | 0 W/m² | - |
| 1778056018 | 34.44° C | 50% | 971 hPa | - | - | 0 W/m² | - |
| 1778055393 | 34.44° C | 50% | 971 hPa | - | - | 0 W/m² | - |
| 1778054769 | 34.44° C | 46% | 971 hPa | - | - | 0 W/m² | - |
| 1778052893 | 35.56° C | 44% | 971 hPa | - | - | 0 W/m² | - |
| 1778051020 | 35° C | 40% | 971 hPa | - | - | 0 W/m² | - |
| 1778050396 | 35° C | 39% | 972 hPa | - | - | 0 W/m² | - |
| 1778049770 | 35.56° C | 38% | 972 hPa | - | - | 0 W/m² | - |
| 1778049146 | 35.56° C | 39% | 972 hPa | - | - | 0 W/m² | - |
| 1778046025 | 34.44° C | 44% | 973 hPa | - | - | 0 W/m² | - |
| 1778044777 | 34.44° C | 44% | 974 hPa | - | - | 0 W/m² | - |
| 1778044152 | 33.89° C | 44% | 974 hPa | - | - | 0 W/m² | - |
| 1778042901 | 33.89° C | 46% | 974 hPa | - | - | 0 W/m² | - |
| 1778042275 | 33.89° C | 45% | 974 hPa | - | - | 0 W/m² | - |
| 1778041651 | 33.33° C | 46% | 974 hPa | - | - | 0 W/m² | - |
| 1778041027 | 33.89° C | 46% | 974 hPa | - | - | 0 W/m² | - |
* Rain since midnight (hover to see other rain measurements)
** Current wind speed in m/s (hover to see current wind gust speed)